Location: Beugnon
(47.6222°N, 3.7850°E)
Time: 05:12:54
(UTC+00:00)

STARLINK-52 - Pass Details

Date: 09 April 2020
Orbit: 392 x 395 km, 53.0° (Epoch: 29 May)

Event Time Altitude Azimuth Distance (km) Brightness Sun altitude
Rises 20:42:14 0° 260° (W) 2,289 7.4 -21.2°
Reaches altitude 10° 20:44:21 10° 267° (W) 1,435 6.4 -21.4°
Maximum altitude 20:47:27 45° 342° (NNW) 549 3.9 -21.8°
Enters shadow 20:47:39 45° 355° (N) 556 3.9 -21.8°
